sat.trackr.live / text

‹ back to catalog

STARLINK-36075

NORAD 66905 · 2025-283AD

PAYLOAD ACTIVE UNKNOWN

§ Identity

Operator
Country
US
Launch date
2025-12-04
Launch site
AFWTR
Launch vehicle
Mass (kg)
RCS (m²)

Purposes: comms

External: N2YO · Heavens-Above · Gunter

§ Orbital elements

Epoch: 2026-09-19T12:51:35.730144Z

Period
93.85 min
Inclination
53.1588°
Eccentricity
0.0001081
Mean motion
15.34399896 rev/d
Perigee alt
462.0 km
Apogee alt
463.4 km
Semi-major
6,840.8 km
B*
6.5411e-4
RAAN
202.2968°
Arg perigee
78.6344°
Mean anomaly
281.4780°
Rev number
4,554

§ Raw data

STARLINK-360751 66905U 25283AD  26262.53583021  .00021788  00000+0  65411-3 0  99962 66905  53.1588 202.2968 0001081  78.6344 281.4780 15.34399896 45544

JSON: /api/v1/satellites/66905 · /tle

For live sub-satellite position, see the globe view (requires WebGL).

§ Visibility from observer

Set your observer location to see the next 7 days of passes ≥ 10°. The values pass through the URL so the page stays shareable.

No JS? Fill the form by hand. The geolocation button needs JavaScript.